MUOS-4

Last updated on Wed Jul 16 2025 00:02:48 GMT+0000 (Coordinated Universal Time)

1 40887U 15044A 25196.57319862 -.00000087 00000+0 00000+0 0 9999 2 40887 3.7155 39.1948 0056453 4.1586 171.6979 1.00271370 36180
UTC large
Height (km)
Speed (km/s)
/
Latitude / Longitude
Inclination (degrees)
Orbital Period (minutes)
Azimuth
Elevation
Range (km)
Doppler Factor

Next 0 passes for location: London (51.5072 / 0.1276)

Sorry there are no passes over London.